ACA15M LYBE-LDSP

Flight info

Callsign ACA15M
Flight time 0h 39m
Altitude 20000
Route VAL4J/30R VAL Y88 VEBAR/N0484F400 DCT KENEM
Aircraft B77L/H-SDE1E2E3FGHIJ2J3J4J5M1RWXY/LB1D1

Departure

Time 2026-04-30 08:34
Airport Belgrade Nikola Tesla Airport (LYBE)

Arrival

Time 2026-04-30 09:13
Airport Split Saint Jerome Airport (LDSP)
Time Latitude Longitude Altitude Speed Heading
2026-04-30 08:15 44.82172 20.29079 311 ft 0 kts 242°
2026-04-30 08:22 44.82172 20.29080 311 ft 1 kts 242°
2026-04-30 08:22 44.82179 20.29097 312 ft 3 kts 242°
2026-04-30 08:23 44.82188 20.29122 312 ft 3 kts 242°
2026-04-30 08:23 44.82198 20.29147 311 ft 3 kts 242°
2026-04-30 08:23 44.82204 20.29163 313 ft 1 kts 241°
2026-04-30 08:23 44.82205 20.29167 313 ft 0 kts 241°
2026-04-30 08:25 44.82200 20.29162 312 ft 2 kts 212°
2026-04-30 08:26 44.82186 20.29172 313 ft 2 kts 130°
2026-04-30 08:26 44.82184 20.29200 312 ft 3 kts 94°
2026-04-30 08:26 44.82181 20.29239 311 ft 5 kts 100°
2026-04-30 08:26 44.82157 20.29308 312 ft 11 kts 122°
2026-04-30 08:27 44.82111 20.29407 313 ft 9 kts 123°
2026-04-30 08:27 44.82084 20.29482 313 ft 8 kts 96°
2026-04-30 08:27 44.82112 20.29548 313 ft 8 kts 59°
2026-04-30 08:27 44.82098 20.29629 314 ft 10 kts 122°
2026-04-30 08:28 44.82055 20.29727 314 ft 13 kts 122°
2026-04-30 08:28 44.82001 20.29848 313 ft 16 kts 122°
2026-04-30 08:28 44.81935 20.29997 313 ft 19 kts 122°
2026-04-30 08:28 44.81860 20.30165 313 ft 22 kts 122°
2026-04-30 08:29 44.81777 20.30353 314 ft 23 kts 122°
2026-04-30 08:29 44.81689 20.30551 312 ft 24 kts 123°
2026-04-30 08:29 44.81600 20.30748 314 ft 24 kts 122°
2026-04-30 08:29 44.81512 20.30946 312 ft 24 kts 122°
2026-04-30 08:30 44.81425 20.31145 311 ft 24 kts 122°
2026-04-30 08:30 44.81338 20.31344 311 ft 24 kts 122°
2026-04-30 08:30 44.81250 20.31539 314 ft 24 kts 121°
2026-04-30 08:30 44.81163 20.31737 313 ft 24 kts 122°
2026-04-30 08:31 44.81075 20.31936 312 ft 24 kts 122°
2026-04-30 08:31 44.81002 20.32103 312 ft 13 kts 119°
2026-04-30 08:31 44.81006 20.32228 311 ft 13 kts 56°
2026-04-30 08:31 44.81085 20.32298 312 ft 14 kts 15°
2026-04-30 08:32 44.81164 20.32307 311 ft 8 kts
2026-04-30 08:32 44.81213 20.32321 312 ft 7 kts 348°
2026-04-30 08:32 44.81243 20.32263 314 ft 7 kts 301°
2026-04-30 08:32 44.81251 20.32246 314 ft 0 kts 303°
2026-04-30 08:33 44.81299 20.32139 315 ft 45 kts 302°
2026-04-30 08:33 44.81646 20.31358 310 ft 140 kts 302°
2026-04-30 08:34 44.82249 20.30009 741 ft 170 kts 305°
2026-04-30 08:34 44.82811 20.28547 1756 ft 181 kts 288°
2026-04-30 08:34 44.82678 20.26643 2339 ft 216 kts 246°
2026-04-30 08:34 44.81711 20.24956 3143 ft 234 kts 219°
2026-04-30 08:35 44.80229 20.23711 3625 ft 262 kts 209°
2026-04-30 08:35 44.78613 20.22466 4587 ft 269 kts 210°
2026-04-30 08:35 44.76940 20.21204 5678 ft 275 kts 210°
2026-04-30 08:35 44.75223 20.19986 6948 ft 277 kts 208°
2026-04-30 08:36 44.73502 20.18740 8036 ft 280 kts 210°
2026-04-30 08:36 44.71778 20.17444 9149 ft 282 kts 211°
2026-04-30 08:36 44.70051 20.16098 10304 ft 283 kts 212°
2026-04-30 08:36 44.68347 20.14689 11189 ft 286 kts 213°
2026-04-30 08:37 44.66518 20.13321 11645 ft 313 kts 210°
2026-04-30 08:37 44.64498 20.11805 11942 ft 345 kts 211°
2026-04-30 08:37 44.62291 20.10106 12175 ft 377 kts 211°
2026-04-30 08:37 44.59945 20.08297 12996 ft 391 kts 211°
2026-04-30 08:38 44.57539 20.06454 14026 ft 398 kts 212°
2026-04-30 08:38 44.55169 20.04471 15062 ft 395 kts 220°
2026-04-30 08:38 44.53172 20.01951 16382 ft 379 kts 231°
2026-04-30 08:38 44.52054 20.00113 17429 ft 369 kts 236°
2026-04-30 08:39 44.50633 19.97207 18865 ft 357 kts 241°
2026-04-30 08:39 44.49297 19.94281 19808 ft 359 kts 241°
2026-04-30 08:39 44.47934 19.91285 20323 ft 373 kts 241°
2026-04-30 08:39 44.46497 19.88114 20323 ft 398 kts 242°
2026-04-30 08:40 44.44976 19.84735 20343 ft 421 kts 242°
2026-04-30 08:40 44.43386 19.81234 20325 ft 423 kts 240°
2026-04-30 08:40 44.41798 19.77853 20290 ft 408 kts 240°
2026-04-30 08:40 44.40261 19.74600 20297 ft 393 kts 240°
2026-04-30 08:41 44.38769 19.71456 20297 ft 382 kts 240°
2026-04-30 08:41 44.37331 19.68395 20307 ft 372 kts 241°
2026-04-30 08:41 44.35937 19.65399 20311 ft 364 kts 241°
2026-04-30 08:41 44.34574 19.62464 20312 ft 356 kts 242°
2026-04-30 08:42 44.33240 19.59594 20311 ft 350 kts 241°
2026-04-30 08:42 44.31926 19.56771 20313 ft 344 kts 241°
2026-04-30 08:42 44.30632 19.53997 20314 ft 338 kts 241°
2026-04-30 08:42 44.29356 19.51267 20314 ft 333 kts 241°
2026-04-30 08:43 44.28098 19.48581 20276 ft 328 kts 242°
2026-04-30 08:43 44.26862 19.45941 20323 ft 322 kts 242°
2026-04-30 08:43 44.25613 19.43266 20340 ft 340 kts 241°
2026-04-30 08:43 44.24276 19.40400 20343 ft 365 kts 241°
2026-04-30 08:44 44.22843 19.37344 20344 ft 388 kts 240°
2026-04-30 08:44 44.21331 19.34133 20332 ft 399 kts 240°
2026-04-30 08:44 44.19800 19.30900 20331 ft 400 kts 240°
2026-04-30 08:44 44.18255 19.27629 20316 ft 409 kts 240°
2026-04-30 08:45 44.16682 19.24298 20317 ft 414 kts 240°
2026-04-30 08:45 44.15124 19.20917 20326 ft 414 kts 243°
2026-04-30 08:45 44.13820 19.17380 20281 ft 407 kts 249°
2026-04-30 08:45 44.12764 19.13774 20303 ft 398 kts 253°
2026-04-30 08:46 44.11960 19.10110 20319 ft 396 kts 256°
2026-04-30 08:46 44.11181 19.06413 20317 ft 400 kts 256°
2026-04-30 08:46 44.10388 19.02681 20314 ft 403 kts 256°
2026-04-30 08:46 44.09593 18.98956 20327 ft 402 kts 256°
2026-04-30 08:47 44.08789 18.95233 20310 ft 402 kts 256°
2026-04-30 08:47 44.07984 18.91517 20311 ft 401 kts 256°
2026-04-30 08:47 44.07179 18.87806 20315 ft 401 kts 256°
2026-04-30 08:47 44.06383 18.84146 20306 ft 401 kts 256°
2026-04-30 08:48 44.05576 18.80441 20312 ft 401 kts 256°
2026-04-30 08:48 44.04763 18.76693 20310 ft 408 kts 256°
2026-04-30 08:48 44.03936 18.72902 20309 ft 410 kts 256°
2026-04-30 08:48 44.03104 18.69116 20302 ft 409 kts 256°
2026-04-30 08:49 44.02274 18.65347 20287 ft 407 kts 256°
2026-04-30 08:49 44.01449 18.61598 20307 ft 405 kts 256°
2026-04-30 08:49 44.00627 18.57863 20303 ft 404 kts 256°
2026-04-30 08:49 43.99806 18.54137 20306 ft 403 kts 256°
2026-04-30 08:50 43.98984 18.50418 20307 ft 403 kts 256°
2026-04-30 08:50 43.98160 18.46697 20311 ft 403 kts 256°
2026-04-30 08:50 43.97335 18.42973 20336 ft 404 kts 256°
2026-04-30 08:50 43.96509 18.39248 20312 ft 405 kts 256°
2026-04-30 08:51 43.95613 18.35537 20330 ft 406 kts 252°
2026-04-30 08:51 43.94601 18.31867 20311 ft 407 kts 251°
2026-04-30 08:51 43.93552 18.28214 20317 ft 408 kts 251°
2026-04-30 08:51 43.92493 18.24566 20330 ft 408 kts 251°
2026-04-30 08:52 43.91436 18.20916 20312 ft 408 kts 251°
2026-04-30 08:52 43.90389 18.17274 20308 ft 405 kts 251°
2026-04-30 08:52 43.89350 18.13648 20299 ft 404 kts 251°
2026-04-30 08:52 43.88317 18.10037 20306 ft 402 kts 251°
2026-04-30 08:53 43.87289 18.06435 20303 ft 402 kts 251°
2026-04-30 08:53 43.86263 18.02837 20293 ft 401 kts 251°
2026-04-30 08:53 43.85239 17.99247 20282 ft 401 kts 251°
2026-04-30 08:53 43.84213 17.95654 20280 ft 401 kts 251°
2026-04-30 08:54 43.83184 17.92057 20275 ft 402 kts 251°
2026-04-30 08:54 43.82152 17.88457 20277 ft 403 kts 251°
2026-04-30 08:54 43.81115 17.84842 20257 ft 405 kts 252°
2026-04-30 08:54 43.80069 17.81207 20243 ft 407 kts 252°
2026-04-30 08:55 43.79022 17.77570 20224 ft 408 kts 252°
2026-04-30 08:55 43.77972 17.73919 20242 ft 408 kts 251°
2026-04-30 08:55 43.76932 17.70318 20252 ft 409 kts 251°
2026-04-30 08:55 43.75875 17.66667 20236 ft 409 kts 251°
2026-04-30 08:56 43.74814 17.63011 20219 ft 410 kts 251°
2026-04-30 08:56 43.73753 17.59364 20215 ft 408 kts 251°
2026-04-30 08:56 43.72696 17.55739 20223 ft 405 kts 251°
2026-04-30 08:56 43.71649 17.52130 20237 ft 404 kts 251°
2026-04-30 08:57 43.70603 17.48522 20209 ft 404 kts 251°
2026-04-30 08:57 43.69555 17.44916 20197 ft 404 kts 251°
2026-04-30 08:57 43.68504 17.41313 20190 ft 404 kts 251°
2026-04-30 08:57 43.67454 17.37707 20193 ft 405 kts 252°
2026-04-30 08:58 43.66396 17.34090 20175 ft 408 kts 251°
2026-04-30 08:58 43.65335 17.30483 19907 ft 403 kts 251°
2026-04-30 08:58 43.64281 17.26910 19229 ft 400 kts 251°
2026-04-30 08:58 43.63235 17.23366 18474 ft 398 kts 251°
2026-04-30 08:59 43.62193 17.19834 17735 ft 395 kts 251°
2026-04-30 08:59 43.61162 17.16342 17095 ft 392 kts 251°
2026-04-30 08:59 43.60134 17.12860 16461 ft 393 kts 251°
2026-04-30 08:59 43.59100 17.09359 15871 ft 396 kts 251°
2026-04-30 09:00 43.58057 17.05833 15294 ft 397 kts 251°
2026-04-30 09:00 43.57019 17.02318 14810 ft 395 kts 251°
2026-04-30 09:00 43.55981 16.98815 14327 ft 393 kts 253°
2026-04-30 09:00 43.54944 16.95324 13883 ft 393 kts 251°
2026-04-30 09:01 43.53958 16.91818 13370 ft 391 kts 255°
2026-04-30 09:01 43.52936 16.88331 12900 ft 393 kts 251°
2026-04-30 09:01 43.51882 16.84882 12487 ft 390 kts 253°
2026-04-30 09:01 43.50831 16.81440 12052 ft 388 kts 250°
2026-04-30 09:02 43.48741 16.74598 11180 ft 388 kts 252°
2026-04-30 09:02 43.47707 16.71172 10702 ft 385 kts 252°
2026-04-30 09:02 43.46696 16.67785 10237 ft 381 kts 251°
2026-04-30 09:03 43.45694 16.64436 9750 ft 377 kts 250°
2026-04-30 09:03 43.44685 16.61109 9245 ft 378 kts 252°
2026-04-30 09:03 43.43669 16.57772 8759 ft 378 kts 252°
2026-04-30 09:03 43.42667 16.54464 8271 ft 370 kts 249°
2026-04-30 09:04 43.41700 16.51238 7782 ft 360 kts 252°
2026-04-30 09:04 43.40709 16.48105 7303 ft 354 kts 248°
2026-04-30 09:04 43.39748 16.45041 6823 ft 344 kts 250°
2026-04-30 09:04 43.38848 16.42034 6333 ft 335 kts 251°
2026-04-30 09:05 43.38008 16.39090 5818 ft 326 kts 255°
2026-04-30 09:05 43.37431 16.36112 5354 ft 320 kts 258°
2026-04-30 09:05 43.36934 16.33151 4916 ft 317 kts 259°
2026-04-30 09:05 43.36486 16.30203 4465 ft 311 kts 261°
2026-04-30 09:06 43.36047 16.27324 4104 ft 305 kts 259°
2026-04-30 09:06 43.35608 16.24551 3793 ft 296 kts 259°
2026-04-30 09:06 43.35186 16.21805 3468 ft 286 kts 260°
2026-04-30 09:06 43.34798 16.19214 3157 ft 277 kts 259°
2026-04-30 09:07 43.34430 16.16663 2867 ft 263 kts 269°
2026-04-30 09:07 43.34694 16.14340 2812 ft 234 kts 302°
2026-04-30 09:07 43.35635 16.12654 2811 ft 218 kts 321°
2026-04-30 09:07 43.36723 16.11255 2796 ft 209 kts 323°
2026-04-30 09:08 43.37771 16.09957 2806 ft 195 kts 323°
2026-04-30 09:08 43.38872 16.08959 2784 ft 186 kts 350°
2026-04-30 09:08 43.40096 16.09063 2801 ft 176 kts 24°
2026-04-30 09:08 43.41198 16.09753 2804 ft 175 kts 26°
2026-04-30 09:09 43.42308 16.10446 2784 ft 176 kts 26°
2026-04-30 09:09 43.43338 16.11313 2815 ft 174 kts 46°
2026-04-30 09:09 43.44184 16.12541 2802 ft 177 kts 46°
2026-04-30 09:09 43.44994 16.13824 2739 ft 179 kts 51°
2026-04-30 09:10 43.45738 16.15165 2504 ft 170 kts 54°
2026-04-30 09:10 43.46465 16.16474 2252 ft 175 kts 51°
2026-04-30 09:10 43.47222 16.17794 2081 ft 174 kts 51°
2026-04-30 09:10 43.47944 16.19086 1789 ft 165 kts 52°
2026-04-30 09:11 43.48601 16.20261 1595 ft 145 kts 53°
2026-04-30 09:11 43.49205 16.21345 1324 ft 140 kts 52°
2026-04-30 09:11 43.49800 16.22418 1169 ft 144 kts 57°
2026-04-30 09:11 43.50421 16.23537 986 ft 146 kts 56°
2026-04-30 09:12 43.51025 16.24614 813 ft 137 kts 56°
2026-04-30 09:12 43.51593 16.25658 637 ft 140 kts 54°
2026-04-30 09:12 43.52166 16.26709 418 ft 131 kts 52°
2026-04-30 09:12 43.52716 16.27681 295 ft 126 kts 52°
2026-04-30 09:13 43.53236 16.28605 97 ft 120 kts 52°
2026-04-30 09:13 43.53683 16.29417 90 ft 81 kts 53°
2026-04-30 09:13 43.53937 16.29877 66 ft 47 kts 53°
2026-04-30 09:13 43.54039 16.30063 63 ft 8 kts 62°
2026-04-30 09:14 43.54020 16.30101 65 ft 7 kts 178°
2026-04-30 09:14 43.53958 16.30079 64 ft 11 kts 199°
2026-04-30 09:14 43.53878 16.30010 64 ft 17 kts 229°
2026-04-30 09:14 43.53833 16.29927 64 ft 5 kts 234°
2026-04-30 09:15 43.53809 16.29883 63 ft 7 kts 233°
2026-04-30 09:15 43.53777 16.29823 64 ft 9 kts 232°
2026-04-30 09:15 43.53733 16.29746 62 ft 11 kts 232°
2026-04-30 09:15 43.53688 16.29670 64 ft 7 kts 216°
2026-04-30 09:16 43.53663 16.29684 67 ft 3 kts 118°
2026-04-30 09:16 43.53662 16.29718 65 ft 5 kts 94°
2026-04-30 09:16 43.53661 16.29729 66 ft 0 kts 95°